[[{"header":{"parameterUnit":"m.s-1","parameterCategory":1,"la1":30.2991,"la2":30.254,"lo1":-89.0895,"lo2":-89.0444,"dx":0.0017,"dy":0.0017,"nx":28,"ny":28,"refTime":"2022-12-13T09:00:00:Z","depth":0,"parameterNumber":2,"parameterNumberName":"U-component_of_WINDS"},"data":[0,0,0,0,0,0,0,0,0,0,0,0,0,0,0,0,0,0,0,0,0,0,0,0,0,0,0,0,0,0,0,0,0,0,0,0,0,0,0,0,0,0,0,0,0,0,0,0,0,0,0,0,0,0,0,0,0,0,-2.3376,-2.3376,0,-2.3399,-2.3399,-2.3399,-2.3399,-2.3399,-2.3398,-2.3398,-2.3425,-2.3426,-2.3427,0,0,0,0,0,0,0,0,0,0,0,0,0,-2.3334,-2.3335,-2.3376,-2.3376,-2.3376,-2.3399,-2.3399,-2.3399,-2.3399,-2.3399,-2.3398,-2.3398,-2.3424,-2.3426,-2.3427,0,0,0,0,0,0,0,0,0,0,0,0,0,-2.3354,-2.3335,-2.3375,-2.3379,-2.3379,-2.3398,-2.3399,-2.3399,-2.3399,-2.3399,-2.3398,-2.3398,-2.3424,-2.3425,-2.3427,-2.3446,0,0,-2.3432,-2.3432,0,0,0,0,0,0,0,0,-2.3353,-2.3355,-2.3378,-2.3378,-2.3379,-2.3395,-2.3394,-2.3415,-2.3399,-2.3392,-2.3398,-2.3397,-2.3416,-2.3418,-2.3423,-2.3447,-2.3448,-2.3432,-2.3433,-2.3433,-2.3434,0,0,0,0,0,0,0,-2.3351,-2.3354,-2.3385,-2.3378,-2.3379,-2.338,-2.3382,-2.3398,-2.3406,-2.3392,-2.3392,-2.3395,-2.3416,-2.3422,-2.3424,-2.3448,-2.3432,-2.3433,-2.3434,-2.3434,-2.3488,-2.3488,0,0,0,0,0,0,-2.3349,-2.3353,-2.3384,-2.3385,-2.3364,-2.3381,-2.3383,-2.3391,-2.3406,-2.3408,-2.3395,-2.3395,-2.3419,-2.3422,-2.3425,-2.3447,-2.3433,-2.3435,-2.3436,-2.3487,-2.3488,-2.3488,0,0,0,0,0,0,-2.3348,-2.3352,-2.3383,-2.3369,-2.3373,-2.3382,-2.339,-2.3391,-2.3397,-2.3408,-2.341,-2.34,-2.3419,-2.3423,-2.344,-2.3448,-2.3435,-2.3437,-2.3487,-2.3487,-2.3488,-2.3491,0,0,0,0,0,0,-2.3347,-2.3351,-2.3358,-2.3369,-2.3374,-2.3397,-2.3391,-2.3392,-2.3399,-2.3399,-2.3413,-2.3414,-2.3419,-2.3438,-2.3441,-2.345,-2.3438,-2.3486,-2.3487,-2.3488,-2.3491,-2.3492,-2.3494,0,0,0,0,0,-2.3345,-2.3359,-2.3358,-2.3362,-2.3382,-2.3398,-2.34,-2.3405,-2.34,-2.3407,-2.3414,-2.3414,-2.3446,-2.344,-2.3444,-2.3452,-2.3486,-2.3487,-2.3488,-2.349,-2.3492,-2.3494,0,0,0,0,0,0,-2.335,-2.3361,-2.336,-2.3378,-2.3386,-2.3398,-2.3407,-2.3407,-2.3418,-2.3417,-2.3423,-2.3426,-2.3443,-2.345,-2.3442,-2.3471,-2.3465,-2.3468,-2.3466,-2.3468,-2.3469,-2.3467,-2.3439,0,0,0,0,0,-2.3352,-2.3363,-2.3372,-2.3387,-2.3391,-2.3398,-2.3405,-2.3407,-2.3417,-2.3421,-2.3429,-2.344,-2.3452,-2.346,-2.3473,-2.3492,-2.3495,-2.35,-2.3501,-2.3502,-2.3504,-2.3514,-2.3516,-2.3492,-2.3492,-2.3492,0,0,-2.3359,-2.3366,-2.3373,-2.3388,-2.3395,-2.3406,-2.3401,-2.3414,-2.3422,-2.3424,-2.344,-2.3446,-2.3458,-2.3476,-2.3485,-2.3482,-2.3511,-2.3504,-2.3505,-2.3506,-2.3515,-2.3518,-2.352,-2.3493,-2.3493,-2.3493,0,0,-2.3376,-2.3382,-2.3395,-2.3402,-2.3412,-2.3416,-2.3419,-2.343,-2.3434,-2.345,-2.3451,-2.3462,-2.3483,-2.3491,-2.3498,-2.3517,-2.3517,-2.3521,-2.3529,-2.3538,-2.354,-2.3542,-2.3548,-2.355,-2.3523,-2.3523,-2.3523,0,-2.3382,-2.3399,-2.3401,-2.3413,-2.342,-2.342,-2.3433,-2.344,-2.3454,-2.3459,-2.3456,-2.3482,-2.349,-2.351,-2.3514,-2.352,-2.3524,-2.3519,-2.3539,-2.3541,-2.3543,-2.3548,-2.3551,-2.3523,-2.3523,-2.3523,-2.3523,0,-2.3406,-2.3417,-2.3426,-2.3438,-2.3446,-2.3458,-2.3464,-2.3471,-2.3473,-2.3477,-2.3494,-2.3503,-2.3517,-2.3522,-2.3524,-2.3542,-2.354,-2.3538,-2.3533,-2.3545,-2.3551,-2.3553,-2.3523,-2.3523,-2.3523,-2.3523,0,0,-2.3427,-2.3439,-2.3443,-2.3448,-2.3459,-2.3468,-2.348,-2.3492,-2.3498,-2.3508,-2.3519,-2.3536,-2.3534,-2.3542,-2.3545,-2.3554,-2.3567,-2.3551,-2.3551,-2.3553,-2.3586,-2.3587,-2.3589,-2.3567,-2.3568,-2.3568,-2.3585,0,-2.3444,-2.3465,-2.3468,-2.3486,-2.3496,-2.3496,-2.3507,-2.3515,-2.352,-2.353,-2.3535,-2.3547,-2.3544,-2.3549,-2.3557,-2.3563,-2.3574,-2.3562,-2.3577,-2.3578,-2.3574,-2.3592,-2.3594,-2.3609,-2.3587,-2.3587,-2.3588,0,-2.3468,-2.3477,-2.3496,-2.3504,-2.3509,-2.3518,-2.3529,-2.3538,-2.3547,-2.355,-2.3558,-2.356,-2.3573,-2.3567,-2.3585,-2.3578,-2.3584,-2.3588,-2.3589,-2.359,-2.3583,-2.3594,-2.3614,-2.3616,-2.3591,-2.3591,-2.3591,0,-2.348,-2.3497,-2.351,-2.3515,-2.3525,-2.3532,-2.3537,-2.3545,-2.3552,-2.3562,-2.3566,-2.3578,-2.3584,-2.3593,-2.3598,-2.3594,-2.3616,-2.3611,-2.3619,-2.3619,-2.3623,-2.3623,-2.3644,-2.3628,-2.3628,-2.3628,-2.3628,0,-2.3499,-2.3511,-2.3516,-2.3524,-2.3537,-2.354,-2.3553,-2.3558,-2.3565,-2.3575,-2.3576,-2.3585,-2.3591,-2.3601,-2.3605,-2.3619,-2.3622,-2.3625,-2.3626,-2.3625,-2.3624,-2.3629,-2.3628,-2.3629,-2.3629,-2.3628,-2.3628,0,-2.3516,-2.3519,-2.3533,-2.3542,-2.3544,-2.3553,-2.356,-2.3569,-2.3573,-2.3585,-2.3588,-2.3595,-2.3606,-2.3612,-2.3627,-2.363,-2.3646,-2.3646,-2.3642,-2.3642,-2.365,-2.3649,-2.3675,-2.3678,-2.366,-2.366,-2.366,0,-2.3527,-2.3536,-2.3545,-2.355,-2.3555,-2.3564,-2.3571,-2.3574,-2.3581,-2.3591,-2.3598,-2.361,-2.3619,-2.3638,-2.3645,-2.3656,-2.3657,-2.3665,-2.3658,-2.3656,-2.3656,-2.3655,-2.3656,-2.3666,-2.3666,-2.3666,-2.3666,0,-2.3548,-2.3549,-2.3557,-2.3566,-2.3573,-2.3581,-2.3588,-2.3593,-2.3598,-2.3605,-2.3616,-2.3623,-2.3638,-2.3649,-2.3661,-2.3667,-2.3667,-2.3668,-2.3671,-2.3669,-2.3666,-2.3667,-2.3645,-2.3668,-2.3668,-2.3667,-2.3667,-2.3667,-2.3562,-2.3569,-2.3576,-2.3585,-2.3591,-2.3597,-2.3605,-2.3609,-2.3618,-2.3629,-2.3631,-2.3643,-2.3651,-2.3667,-2.3673,-2.3682,-2.3681,-2.3684,-2.3685,-2.3686,-2.3686,-2.3665,-2.3685,-2.3685,-2.3685,-2.3685,-2.3685,0,-2.3582,-2.3586,-2.3594,-2.3604,-2.3611,-2.3609,-2.3617,-2.3624,-2.3634,-2.3641,-2.365,-2.3662,-2.3673,-2.368,-2.3691,-2.3697,-2.3698,-2.37,-2.37,-2.3701,-2.3687,-2.3684,-2.3699,-2.3699,-2.3699,-2.3699,-2.3699,-2.3699,-2.3593,-2.3605,-2.3607,-2.3621,-2.3625,-2.3636,-2.364,-2.3646,-2.3652,-2.3666,-2.3674,-2.3678,-2.3685,-2.3697,-2.3706,-2.3708,-2.3712,-2.3714,-2.3716,-2.3703,-2.3702,-2.37,-2.3697,-2.3715,-2.3715,-2.3729,-2.3729,-2.3729]},{"header":{"parameterUnit":"m.s-1","parameterCategory":1,"la1":30.2991,"la2":30.254,"lo1":-89.0895,"lo2":-89.0444,"dx":0.0017,"dy":0.0017,"nx":28,"ny":28,"refTime":"2022-12-13T09:00:00:Z","depth":0,"parameterNumber":3,"parameterNumberName":"V-component_of_WINDS"},"data":[0,0,0,0,0,0,0,0,0,0,0,0,0,0,0,0,0,0,0,0,0,0,0,0,0,0,0,0,0,0,0,0,0,0,0,0,0,0,0,0,0,0,0,0,0,0,0,0,0,0,0,0,0,0,0,0,0,0,5.281,5.281,0,5.2834,5.2834,5.2835,5.2831,5.2831,5.283,5.283,5.2851,5.2852,5.2853,0,0,0,0,0,0,0,0,0,0,0,0,0,5.2757,5.2758,5.281,5.281,5.281,5.2834,5.2834,5.2835,5.2831,5.2831,5.283,5.283,5.2851,5.2852,5.2853,0,0,0,0,0,0,0,0,0,0,0,0,0,5.2781,5.2759,5.281,5.2812,5.2812,5.2834,5.2835,5.2835,5.2831,5.2831,5.283,5.2829,5.285,5.2852,5.2853,5.2874,0,0,5.2857,5.2858,0,0,0,0,0,0,0,0,5.2779,5.2783,5.2811,5.2811,5.2812,5.2829,5.2824,5.2848,5.2831,5.2824,5.283,5.2829,5.2844,5.2846,5.2852,5.2875,5.2876,5.2858,5.2858,5.2859,5.2859,0,0,0,0,0,0,0,5.2778,5.2781,5.2819,5.2811,5.2812,5.281,5.2813,5.2828,5.2837,5.2824,5.2824,5.2827,5.2844,5.285,5.2852,5.2876,5.2858,5.2859,5.286,5.286,5.292,5.292,0,0,0,0,0,0,5.2776,5.278,5.2818,5.282,5.2794,5.2812,5.2815,5.2824,5.2837,5.2838,5.2828,5.2827,5.2848,5.2851,5.2853,5.288,5.2859,5.286,5.2861,5.2919,5.292,5.2921,0,0,0,0,0,0,5.2775,5.278,5.2818,5.28,5.2805,5.2813,5.2824,5.2825,5.2831,5.2839,5.2841,5.2833,5.2848,5.2851,5.2869,5.288,5.2861,5.2862,5.2918,5.2919,5.292,5.2932,0,0,0,0,0,0,5.2773,5.2779,5.2788,5.28,5.2806,5.2834,5.2824,5.2826,5.2834,5.2833,5.2844,5.2846,5.2848,5.2867,5.2871,5.2882,5.2863,5.2917,5.2919,5.292,5.2931,5.2934,5.2936,0,0,0,0,0,5.2772,5.2789,5.2788,5.2793,5.2817,5.2835,5.2838,5.2841,5.2835,5.2843,5.2849,5.2845,5.2878,5.2869,5.2873,5.2885,5.2916,5.2918,5.292,5.293,5.2933,5.2936,0,0,0,0,0,0,5.2775,5.279,5.279,5.2812,5.2822,5.2834,5.2845,5.2844,5.2856,5.2854,5.2857,5.2859,5.2878,5.2883,5.2873,5.2906,5.2896,5.2899,5.2903,5.2906,5.2908,5.2907,5.2865,0,0,0,0,0,5.2778,5.2793,5.2805,5.2823,5.2829,5.2836,5.2844,5.2846,5.2857,5.2861,5.2867,5.2877,5.289,5.2898,5.291,5.2931,5.2934,5.2941,5.2944,5.2946,5.2948,5.2962,5.2965,5.2926,5.2926,5.2926,0,0,5.2785,5.2795,5.2804,5.2824,5.2833,5.2848,5.284,5.2855,5.2866,5.2862,5.2881,5.2887,5.2897,5.2918,5.2928,5.2923,5.296,5.2948,5.295,5.2951,5.2964,5.2968,5.2971,5.2927,5.2927,5.2927,0,0,5.2805,5.2814,5.2832,5.2841,5.2855,5.286,5.2864,5.2877,5.2881,5.29,5.2899,5.2911,5.2932,5.2941,5.2948,5.2974,5.2972,5.2978,5.2991,5.3004,5.3007,5.301,5.3021,5.3024,5.298,5.298,5.298,0,5.2811,5.2835,5.284,5.2857,5.2866,5.2865,5.2883,5.2891,5.2907,5.2914,5.2908,5.2937,5.2944,5.2968,5.2974,5.298,5.2985,5.2977,5.3007,5.3009,5.3012,5.3022,5.3026,5.2981,5.2981,5.2981,5.298,0,5.2843,5.2859,5.2871,5.289,5.29,5.2917,5.2924,5.2934,5.2935,5.2941,5.2961,5.297,5.2985,5.299,5.299,5.3014,5.3011,5.3006,5.2996,5.3017,5.3026,5.303,5.2982,5.2982,5.2981,5.2981,0,0,5.2865,5.2888,5.2892,5.2902,5.2918,5.293,5.2947,5.2964,5.2973,5.2984,5.2999,5.3018,5.3015,5.3023,5.3024,5.3035,5.3057,5.3029,5.3029,5.3035,5.3086,5.3091,5.3095,5.3056,5.3056,5.3057,5.3086,0,5.2888,5.292,5.2926,5.2954,5.297,5.297,5.2985,5.2997,5.3003,5.3016,5.3022,5.3036,5.3029,5.3035,5.3046,5.3052,5.3068,5.305,5.3069,5.307,5.3068,5.31,5.3104,5.3131,5.3089,5.309,5.309,0,5.2918,5.2934,5.2964,5.2981,5.2988,5.3001,5.3018,5.3031,5.3044,5.3047,5.3058,5.3058,5.3076,5.3065,5.309,5.3078,5.3086,5.309,5.3091,5.3094,5.3082,5.3104,5.3139,5.3143,5.3096,5.3095,5.3095,0,5.2933,5.2961,5.2984,5.2991,5.3011,5.3021,5.3029,5.3042,5.3052,5.3066,5.3072,5.3087,5.3096,5.3107,5.3112,5.3103,5.3137,5.3126,5.314,5.314,5.3147,5.3147,5.3185,5.3151,5.3151,5.3151,5.3151,0,5.2959,5.2978,5.2991,5.3005,5.3026,5.3033,5.3053,5.3061,5.3073,5.3087,5.3088,5.3101,5.3106,5.3121,5.3124,5.3145,5.3148,5.3152,5.3152,5.3152,5.3152,5.3158,5.3157,5.3152,5.3152,5.3151,5.3151,0,5.2979,5.2989,5.3013,5.3031,5.3036,5.3051,5.3065,5.3079,5.3085,5.3104,5.3109,5.3119,5.3136,5.3142,5.3162,5.3164,5.3189,5.3187,5.3185,5.3186,5.32,5.32,5.3244,5.3251,5.3212,5.3212,5.3212,0,5.2995,5.301,5.303,5.3042,5.3051,5.3068,5.308,5.3087,5.3098,5.3116,5.3127,5.3145,5.3159,5.3187,5.3195,5.3211,5.3211,5.3225,5.3213,5.3213,5.3213,5.3212,5.3214,5.3228,5.3228,5.3229,5.3229,0,5.3023,5.3028,5.3045,5.3065,5.3079,5.3094,5.3109,5.3118,5.3127,5.314,5.3159,5.317,5.3193,5.321,5.3227,5.3234,5.3233,5.3233,5.3237,5.3238,5.3237,5.3239,5.3193,5.3232,5.3232,5.3231,5.3231,5.3231,5.3043,5.3057,5.3075,5.3094,5.3107,5.3121,5.3135,5.3145,5.3162,5.3182,5.3184,5.3205,5.3219,5.3242,5.325,5.3266,5.3261,5.3267,5.3269,5.3271,5.3273,5.3234,5.3268,5.3268,5.3268,5.3268,5.3268,0,5.3072,5.3084,5.3103,5.3125,5.3141,5.314,5.3157,5.317,5.3189,5.3203,5.3218,5.3241,5.3258,5.3269,5.3287,5.3297,5.3298,5.3302,5.3302,5.3304,5.3275,5.327,5.3302,5.3302,5.3302,5.3302,5.3302,5.3302,5.309,5.3115,5.3122,5.3153,5.3165,5.3187,5.3197,5.321,5.3222,5.3248,5.3263,5.3271,5.3284,5.3303,5.3319,5.3322,5.3328,5.3334,5.3336,5.3309,5.3305,5.3302,5.3298,5.3335,5.3335,5.3364,5.3364,5.3364]}]]